FW3031 Weather Reports


Display with metric or nautical units.
time (UTC)temp
F
wind
direction
speed
MPH
gust
MPH
rain 1hr
in
rain 24hr
in
rain mn
in
humidity
%
barometer
mb
20260508234028 99 190 5.0 10.0 0.00 0.00 0.00 24 1002.5
20260508233528 99 190 2.0 9.0 0.00 0.00 0.00 25 1002.4
20260508233059 99 190 4.0 10.0 0.00 0.00 0.00 24 1002.7
20260508233028 99 190 5.0 9.0 0.00 0.00 0.00 25 1002.2
20260508232530 100 190 2.0 10.0 0.00 0.00 0.00 24 1002.2
20260508232027 100 190 5.0 11.0 0.00 0.00 0.00 24 1002.1
20260508231557 100 190 4.0 12.0 0.00 0.00 0.00 24 1002.5
20260508231527 100 190 4.0 11.0 0.00 0.00 0.00 24 1002.1
20260508231027 100 190 0.0 12.0 0.00 0.00 0.00 24 1002.0
20260508230526 101 190 6.0 13.0 0.00 0.00 0.00 24 1002.2
20260508230104 101 190 6.0 13.0 0.00 0.00 0.00 24 1002.6
20260508230026 100 190 6.0 13.0 0.00 0.00 0.00 24 1002.2
20260508225526 101 190 5.0 12.0 0.00 0.00 0.00 24 1002.2
20260508225027 101 190 3.0 12.0 0.00 0.00 0.00 24 1002.2
20260508224603 101 190 0.0 9.0 0.00 0.00 0.00 24 1002.5
20260508224528 101 190 0.0 8.0 0.00 0.00 0.00 24 1002.1
20260508224026 101 190 1.0 12.0 0.00 0.00 0.00 24 1002.1
20260508223526 101 190 5.0 12.0 0.00 0.00 0.00 24 1002.1
20260508223101 101 190 3.0 10.0 0.00 0.00 0.00 24 1002.4
20260508223034 101 190 3.0 10.0 0.00 0.00 0.00 25 1002.0
20260508222526 101 190 3.0 10.0 0.00 0.00 0.00 25 1002.0
20260508222026 101 190 5.0 10.0 0.00 0.00 0.00 25 1002.0
20260508221605 101 190 2.0 7.0 0.00 0.00 0.00 24 1002.4
20260508221524 101 190 3.0 8.0 0.00 0.00 0.00 24 1002.0
20260508221022 101 190 3.0 7.0 0.00 0.00 0.00 25 1002.1
20260508220520 101 190 2.0 8.0 0.00 0.00 0.00 25 1002.1
20260508220113 100 190 4.0 10.0 0.00 0.00 0.00 25 1002.6
20260508220020 100 190 3.0 8.0 0.00 0.00 0.00 26 1002.2
20260508215519 100 190 0.0 10.0 0.00 0.00 0.00 25 1002.2
20260508215158 100 190 4.0 10.0 0.00 0.00 0.00 25 1002.4
20260508214606 100 190 5.0 10.0 0.00 0.00 0.00 23 1003.0
20260508214032 100 190 4.0 12.0 0.00 0.00 0.00 24 1002.7
20260508213057 100 190 3.0 10.0 0.00 0.00 0.00 24 1003.3
20260508213049 100 190 5.0 10.0 0.00 0.00 0.00 25 1003.0
20260508212549 100 190 0.0 12.0 0.00 0.00 0.00 24 1003.0
20260508212048 101 190 4.0 12.0 0.00 0.00 0.00 24 1003.2
20260508211602 102 190 3.0 7.0 0.00 0.00 0.00 23 1003.6
20260508211546 102 190 2.0 7.0 0.00 0.00 0.00 23 1003.3
20260508211047 101 190 0.0 6.0 0.00 0.00 0.00 25 1003.3
20260508210544 101 190 1.0 6.0 0.00 0.00 0.00 24 1003.5
20260508210042 101 190 1.0 7.0 0.00 0.00 0.00 24 1003.5
20260508205545 100 190 2.0 9.0 0.00 0.00 0.00 25 1003.6
20260508205041 100 190 1.0 10.0 0.00 0.00 0.00 25 1003.7
20260508204601 100 190 3.0 11.0 0.00 0.00 0.00 25 1004.2
20260508204542 100 190 0.0 11.0 0.00 0.00 0.00 26 1003.9
20260508204039 100 190 5.0 11.0 0.00 0.00 0.00 25 1004.1
20260508203537 100 190 1.0 7.0 0.00 0.00 0.00 26 1004.2
20260508203102 99 0 3.0 9.0 0.00 0.00 0.00 25 1004.7
20260508203036 99 190 2.0 9.0 0.00 0.00 0.00 26 1004.2
20260508202535 99 190 0.0 11.0 0.00 0.00 0.00 27 1004.4
20260508202033 99 190 1.0 11.0 0.00 0.00 0.00 27 1004.4
20260508201600 99 190 4.0 7.0 0.00 0.00 0.00 27 1004.9
20260508201531 99 190 3.0 7.0 0.00 0.00 0.00 28 1004.6
20260508201030 98 190 3.0 10.0 0.00 0.00 0.00 28 1004.7
20260508200529 98 190 4.0 12.0 0.00 0.00 0.00 28 1004.8
20260508200056 99 190 2.0 6.0 0.00 0.00 0.00 28 1005.4
20260508200032 99 190 2.0 6.0 0.00 0.00 0.00 28 1005.0
20260508195526 98 190 1.0 7.0 0.00 0.00 0.00 29 1005.1
20260508195025 98 190 1.0 11.0 0.00 0.00 0.00 30 1005.2
20260508194615 98 190 4.0 11.0 0.00 0.00 0.00 29 1005.6
20260508194543 97 190 4.0 11.0 0.00 0.00 0.00 30 1005.3
20260508194023 97 190 0.0 10.0 0.00 0.00 0.00 30 1005.4
20260508193522 97 190 2.0 11.0 0.00 0.00 0.00 30 1005.6
20260508193110 97 190 4.0 11.0 0.00 0.00 0.00 30 1005.9
20260508193022 97 190 6.0 11.0 0.00 0.00 0.00 30 1005.7
20260508192521 97 190 1.0 6.0 0.00 0.00 0.00 30 1005.8
20260508192021 97 190 0.0 7.0 0.00 0.00 0.00 31 1005.9
20260508191601 97 190 1.0 5.0 0.00 0.00 0.00 30 1006.2
20260508191518 96 190 1.0 5.0 0.00 0.00 0.00 31 1006.0
20260508191018 96 190 2.0 5.0 0.00 0.00 0.00 30 1006.2
20260508190516 96 190 0.0 11.0 0.00 0.00 0.00 32 1006.3
20260508190057 96 190 5.0 11.0 0.00 0.00 0.00 32 1006.7
20260508190015 96 190 3.0 11.0 0.00 0.00 0.00 32 1006.5
20260508185514 96 190 3.0 9.0 0.00 0.00 0.00 33 1006.5
20260508185013 95 190 3.0 9.0 0.00 0.00 0.00 34 1006.5
20260508184609 96 190 3.0 7.0 0.00 0.00 0.00 34 1006.9
20260508184513 96 190 2.0 7.0 0.00 0.00 0.00 34 1006.7
20260508184012 95 190 2.0 9.0 0.00 0.00 0.00 34 1006.7
20260508183510 95 190 1.0 11.0 0.00 0.00 0.00 34 1006.9
20260508183057 95 0 3.0 11.0 0.00 0.00 0.00 34 1007.2
20260508183009 95 190 2.0 11.0 0.00 0.00 0.00 34 1007.0
20260508182510 94 190 0.0 6.0 0.00 0.00 0.00 35 1007.0
20260508182006 95 190 2.0 6.0 0.00 0.00 0.00 33 1007.2
20260508181608 94 0 0.0 7.0 0.00 0.00 0.00 33 1007.5
20260508181505 94 190 0.0 7.0 0.00 0.00 0.00 34 1007.2
20260508181006 94 190 1.0 7.0 0.00 0.00 0.00 35 1007.4
20260508180504 94 190 1.0 5.0 0.00 0.00 0.00 34 1007.5
20260508180101 94 190 1.0 7.0 0.00 0.00 0.00 35 1007.7
20260508180002 94 190 1.0 7.0 0.00 0.00 0.00 36 1007.6
20260508175501 94 190 1.0 6.0 0.00 0.00 0.00 36 1007.7
20260508175101 93 190 0.0 6.0 0.00 0.00 0.00 36 1007.8
20260508174604 93 190 1.0 5.0 0.00 0.00 0.00 36 1007.8
20260508174100 93 190 2.0 6.0 0.00 0.00 0.00 36 1007.9
20260508173558 93 190 0.0 8.0 0.00 0.00 0.00 37 1008.1
20260508173058 93 190 3.0 8.0 0.00 0.00 0.00 36 1008.2
20260508173056 93 190 4.0 8.0 0.00 0.00 0.00 37 1008.2
20260508172554 92 190 0.0 5.0 0.00 0.00 0.00 37 1008.2
20260508172053 91 190 1.0 6.0 0.00 0.00 0.00 38 1008.2
20260508171558 92 190 1.0 6.0 0.00 0.00 0.00 37 1008.5
20260508171553 92 190 3.0 6.0 0.00 0.00 0.00 37 1008.4
20260508171050 91 190 0.0 6.0 0.00 0.00 0.00 38 1008.5
20260508170550 91 190 0.0 3.0 0.00 0.00 0.00 39 1008.6
20260508170058 91 190 0.0 6.0 0.00 0.00 0.00 39 1008.8
20260508170048 90 190 0.0 4.0 0.00 0.00 0.00 40 1008.7
20260508165547 90 190 2.0 6.0 0.00 0.00 0.00 40 1008.8
20260508165046 90 190 2.0 6.0 0.00 0.00 0.00 40 1009.0
20260508164600 89 0 0.0 5.0 0.00 0.00 0.00 41 1009.1
20260508164549 89 190 0.0 4.0 0.00 0.00 0.00 42 1009.0
20260508164044 88 190 0.0 5.0 0.00 0.00 0.00 42 1009.2
20260508163545 89 190 1.0 5.0 0.00 0.00 0.00 42 1009.2
20260508163058 89 190 2.0 5.0 0.00 0.00 0.00 41 1009.2
20260508163044 89 190 2.0 5.0 0.00 0.00 0.00 42 1009.3
20260508162544 88 190 0.0 2.0 0.00 0.00 0.00 43 1009.3
20260508162041 87 190 0.0 4.0 0.00 0.00 0.00 44 1009.4
20260508161559 87 0 1.0 4.0 0.00 0.00 0.00 44 1009.5
20260508161542 87 190 1.0 4.0 0.00 0.00 0.00 44 1009.6
20260508161043 87 190 1.0 3.0 0.00 0.00 0.00 44 1009.8
20260508160541 86 190 0.0 3.0 0.00 0.00 0.00 45 1009.9
20260508160131 86 0 0.0 3.0 0.00 0.00 0.00 45 1009.8
20260508160039 86 190 0.0 3.0 0.00 0.00 0.00 46 1010.0
20260508155539 86 190 0.0 3.0 0.00 0.00 0.00 46 1010.0
20260508155037 85 190 1.0 3.0 0.00 0.00 0.00 47 1010.1
20260508154558 85 190 0.0 3.0 0.00 0.00 0.00 46 1009.9
20260508154537 85 190 1.0 3.0 0.00 0.00 0.00 47 1010.1
20260508154037 85 190 0.0 3.0 0.00 0.00 0.00 47 1010.2
20260508153537 85 190 1.0 3.0 0.00 0.00 0.00 47 1010.3
20260508153059 85 0 0.0 3.0 0.00 0.00 0.00 48 1010.2
20260508153044 84 190 0.0 3.0 0.00 0.00 0.00 48 1010.3
20260508152535 84 190 0.0 3.0 0.00 0.00 0.00 48 1010.4
20260508152033 84 190 0.0 1.0 0.00 0.00 0.00 49 1010.4
20260508151600 84 0 0.0 4.0 0.00 0.00 0.00 49 1010.3
20260508151533 84 190 0.0 3.0 0.00 0.00 0.00 49 1010.4
20260508151031 83 190 1.0 4.0 0.00 0.00 0.00 50 1010.4
20260508150531 83 190 2.0 4.0 0.00 0.00 0.00 50 1010.5
20260508150059 83 0 0.0 2.0 0.00 0.00 0.00 50 1010.4
20260508150029 83 190 0.0 1.0 0.00 0.00 0.00 51 1010.5
20260508145528 82 190 0.0 2.0 0.00 0.00 0.00 51 1010.6
20260508145027 82 190 0.0 2.0 0.00 0.00 0.00 52 1010.6
20260508144630 81 190 0.0 2.0 0.00 0.00 0.00 52 1010.6
20260508144556 82 0 0.0 2.0 0.00 0.00 0.00 52 1010.6
20260508144028 81 190 0.0 2.0 0.00 0.00 0.00 53 1010.7
20260508143527 81 190 0.0 2.0 0.00 0.00 0.00 53 1010.7
20260508143106 81 0 0.0 0.0 0.00 0.00 0.00 53 1010.5
20260508143029 81 190 0.0 1.0 0.00 0.00 0.00 53 1010.6
20260508142527 80 190 0.0 0.0 0.00 0.00 0.00 54 1010.6
20260508142027 80 190 0.0 0.0 0.00 0.00 0.00 54 1010.6
20260508141610 79 0 0.0 0.0 0.00 0.00 0.00 57 1010.5
20260508141526 79 190 0.0 0.0 0.00 0.00 0.00 57 1010.6
20260508141026 78 190 0.0 0.0 0.00 0.00 0.00 58 1010.6
20260508140526 78 190 0.0 1.0 0.00 0.00 0.00 59 1010.7
20260508140058 77 0 0.0 1.0 0.00 0.00 0.00 59 1010.4
20260508140029 77 190 0.0 1.0 0.00 0.00 0.00 60 1010.6
20260508135528 77 190 0.0 0.0 0.00 0.00 0.00 61 1010.6
20260508135026 76 190 0.0 0.0 0.00 0.00 0.00 62 1010.6
20260508134559 75 0 0.0 1.0 0.00 0.00 0.00 62 1010.3
20260508134525 75 190 0.0 0.0 0.00 0.00 0.00 63 1010.7
20260508134025 75 190 0.0 3.0 0.00 0.00 0.00 63 1010.7
20260508133525 74 190 1.0 3.0 0.00 0.00 0.00 64 1010.7
20260508133102 74 190 1.0 3.0 0.00 0.00 0.00 63 1010.3
20260508133028 74 190 1.0 3.0 0.00 0.00 0.00 64 1010.7
20260508132524 74 190 0.0 2.0 0.00 0.00 0.00 64 1010.6
20260508132028 74 190 1.0 4.0 0.00 0.00 0.00 64 1010.6
20260508131607 74 0 1.0 4.0 0.00 0.00 0.00 63 1010.3
20260508131523 74 190 0.0 4.0 0.00 0.00 0.00 64 1010.6
20260508131025 74 190 0.0 3.0 0.00 0.00 0.00 63 1010.5
20260508130523 74 190 0.0 0.0 0.00 0.00 0.00 64 1010.5
20260508130105 74 0 0.0 0.0 0.00 0.00 0.00 63 1010.2
20260508130026 74 190 0.0 0.0 0.00 0.00 0.00 64 1010.4
20260508125522 74 190 0.0 0.0 0.00 0.00 0.00 64 1010.3
20260508125021 73 190 0.0 0.0 0.00 0.00 0.00 65 1010.4
20260508124558 73 0 0.0 0.0 0.00 0.00 0.00 65 1010.2
20260508124521 73 190 0.0 0.0 0.00 0.00 0.00 65 1010.4
20260508124021 73 190 0.0 0.0 0.00 0.00 0.00 66 1010.3
20260508123521 73 190 0.0 2.0 0.00 0.00 0.00 66 1010.3
20260508123058 72 0 0.0 3.0 0.00 0.00 0.00 65 1009.9
20260508123021 72 190 0.0 3.0 0.00 0.00 0.00 66 1010.2
20260508122519 72 190 0.0 3.0 0.00 0.00 0.00 66 1010.2
20260508122019 72 190 0.0 4.0 0.00 0.00 0.00 66 1010.1
20260508121610 73 0 2.0 4.0 0.00 0.00 0.00 65 1009.8
20260508121517 73 190 1.0 4.0 0.00 0.00 0.00 65 1010.0
20260508121016 73 190 0.0 3.0 0.00 0.00 0.00 65 1009.9
20260508120515 73 190 0.0 2.0 0.00 0.00 0.00 64 1009.9
20260508120058 73 190 0.0 1.0 0.00 0.00 0.00 63 1009.6
20260508120015 73 190 0.0 2.0 0.00 0.00 0.00 63 1009.9
20260508115513 74 190 0.0 0.0 0.00 0.00 0.00 64 1009.8
20260508115013 74 190 0.0 0.0 0.00 0.00 0.00 64 1009.7
20260508114558 74 0 0.0 0.0 0.00 0.00 0.00 63 1009.4
20260508114513 74 190 0.0 0.0 0.00 0.00 0.00 63 1009.7
20260508114012 74 190 0.0 0.0 0.00 0.00 0.00 63 1009.7
20260508113512 74 190 0.0 0.0 0.00 0.00 0.00 63 1009.7
20260508113105 74 0 0.0 0.0 0.00 0.00 0.00 62 1009.2
20260508113014 74 190 0.0 0.0 0.00 0.00 0.00 63 1009.6
20260508112511 74 190 0.0 0.0 0.00 0.00 0.00 63 1009.6
20260508112010 74 190 0.0 0.0 0.00 0.00 0.00 62 1009.6
20260508111609 75 0 0.0 0.0 0.00 0.00 0.00 62 1009.3
20260508111512 75 190 0.0 0.0 0.00 0.00 0.00 62 1009.6
20260508111010 75 190 0.0 0.0 0.00 0.00 0.00 62 1009.6
20260508110509 75 190 0.0 0.0 0.00 0.00 0.00 62 1009.6
20260508110104 75 0 0.0 0.0 0.00 0.00 0.00 62 1009.1
20260508110009 74 190 0.0 0.0 0.00 0.00 0.00 62 1009.4
20260508105509 74 190 0.0 0.0 0.00 0.00 0.00 62 1009.4
20260508105011 75 190 0.0 0.0 0.00 0.00 0.00 62 1009.3
20260508104559 75 0 0.0 2.0 0.00 0.00 0.00 61 1009.0
20260508104508 75 190 0.0 2.0 0.00 0.00 0.00 62 1009.3
20260508104009 75 190 0.0 2.0 0.00 0.00 0.00 61 1009.2
20260508103506 75 190 0.0 0.0 0.00 0.00 0.00 61 1009.3
20260508103112 75 0 0.0 0.0 0.00 0.00 0.00 60 1009.0
20260508103014 75 190 0.0 0.0 0.00 0.00 0.00 61 1009.2
20260508102506 75 190 0.0 0.0 0.00 0.00 0.00 60 1009.2
20260508102003 76 190 0.0 0.0 0.00 0.00 0.00 60 1009.2
20260508101559 76 0 0.0 3.0 0.00 0.00 0.00 59 1008.8
20260508101505 76 190 0.0 3.0 0.00 0.00 0.00 60 1009.2
20260508101004 76 190 0.0 3.0 0.00 0.00 0.00 60 1009.1
20260508100502 76 190 0.0 2.0 0.00 0.00 0.00 59 1009.1
20260508100057 76 0 0.0 0.0 0.00 0.00 0.00 59 1008.9
20260508095600 76 190 0.0 0.0 0.00 0.00 0.00 59 1009.0
20260508095101 77 190 0.0 0.0 0.00 0.00 0.00 58 1009.1
20260508094610 77 0 0.0 0.0 0.00 0.00 0.00 58 1008.9
20260508094607 77 190 0.0 0.0 0.00 0.00 0.00 58 1009.2
20260508094101 77 190 0.0 0.0 0.00 0.00 0.00 58 1009.2
20260508093557 77 190 0.0 0.0 0.00 0.00 0.00 58 1009.2
20260508093058 77 0 0.0 4.0 0.00 0.00 0.00 57 1009.1
20260508092556 77 190 1.0 4.0 0.00 0.00 0.00 58 1009.4
20260508092053 77 190 2.0 4.0 0.00 0.00 0.00 57 1009.5
20260508091604 78 190 0.0 3.0 0.00 0.00 0.00 55 1009.2
20260508091556 78 190 0.0 3.0 0.00 0.00 0.00 55 1009.4
20260508091052 79 190 1.0 3.0 0.00 0.00 0.00 55 1009.3
20260508090551 79 190 0.0 0.0 0.00 0.00 0.00 54 1009.4
20260508090056 79 0 0.0 0.0 0.00 0.00 0.00 54 1009.1
20260508090050 79 190 0.0 0.0 0.00 0.00 0.00 54 1009.4
20260508085549 79 190 0.0 0.0 0.00 0.00 0.00 54 1009.5
20260508085048 79 190 0.0 2.0 0.00 0.00 0.00 54 1009.5
20260508084557 80 0 1.0 2.0 0.00 0.00 0.00 53 1009.3
20260508084548 80 190 0.0 2.0 0.00 0.00 0.00 54 1009.5
20260508084047 80 190 0.0 0.0 0.00 0.00 0.00 54 1009.6
20260508083545 80 190 0.0 0.0 0.00 0.00 0.00 54 1009.6
20260508083146 80 0 0.0 0.0 0.00 0.00 0.00 53 1009.4
20260508083046 80 190 0.0 0.0 0.00 0.00 0.00 53 1009.6
20260508082545 80 190 0.0 0.0 0.00 0.00 0.00 53 1009.6
20260508082044 80 190 0.0 2.0 0.00 0.00 0.00 53 1009.6
20260508081558 81 190 0.0 0.0 0.00 0.00 0.00 52 1009.5
20260508081553 81 190 0.0 2.0 0.00 0.00 0.00 53 1009.7
20260508081042 81 190 0.0 0.0 0.00 0.00 0.00 52 1009.6
20260508080545 81 190 0.0 0.0 0.00 0.00 0.00 52 1009.7
20260508080101 81 0 0.0 0.0 0.00 0.00 0.00 52 1009.5
20260508080047 81 190 0.0 0.0 0.00 0.00 0.00 52 1009.7
20260508075541 81 190 0.0 2.0 0.00 0.00 0.00 52 1009.8
20260508075038 81 190 0.0 2.0 0.00 0.00 0.00 52 1009.9
20260508074556 81 0 0.0 2.0 0.00 0.00 0.00 51 1009.9
20260508074539 81 190 0.0 0.0 0.00 0.00 0.00 52 1010.1
20260508074037 81 190 0.0 2.0 0.00 0.00 0.00 51 1010.0
20260508073537 82 190 0.0 2.0 0.00 0.00 0.00 51 1010.1
20260508073100 82 0 0.0 0.0 0.00 0.00 0.00 50 1009.9
20260508073036 82 190 0.0 0.0 0.00 0.00 0.00 51 1010.1
20260508072536 82 190 0.0 0.0 0.00 0.00 0.00 51 1010.1
20260508072035 82 190 0.0 0.0 0.00 0.00 0.00 51 1010.2
20260508071559 82 0 0.0 0.0 0.00 0.00 0.00 51 1010.0
20260508071535 82 190 0.0 0.0 0.00 0.00 0.00 51 1010.2
20260508071034 82 190 0.0 0.0 0.00 0.00 0.00 51 1010.3
20260508070534 82 190 0.0 0.0 0.00 0.00 0.00 50 1010.3
20260508070105 82 0 0.0 2.0 0.00 0.00 0.00 49 1010.1
20260508070032 82 190 0.0 0.0 0.00 0.00 0.00 50 1010.4
20260508065533 83 190 0.0 2.0 0.00 0.00 0.00 50 1010.5
20260508065031 83 190 0.0 2.0 0.00 0.00 0.00 50 1010.5
20260508064611 83 190 0.0 0.0 0.00 0.00 0.00 49 1010.3
20260508064531 83 190 0.0 0.0 0.00 0.00 0.00 49 1010.5
20260508064031 83 190 0.0 2.0 0.00 0.00 0.00 49 1010.5
20260508063530 83 190 0.0 2.0 0.00 0.00 0.00 49 1010.5
20260508063058 83 0 0.0 3.0 0.00 0.00 0.00 48 1010.2
20260508063030 83 190 0.0 3.0 0.00 0.00 0.00 49 1010.4
20260508062532 83 190 0.0 3.0 0.00 0.00 0.00 48 1010.5
20260508062030 83 190 0.0 0.0 0.00 0.00 0.00 48 1010.6
20260508061603 84 0 0.0 0.0 0.00 0.00 0.00 47 1010.2
20260508061531 84 190 0.0 0.0 0.00 0.00 0.00 47 1010.5
20260508061030 84 190 0.0 0.0 0.00 0.00 0.00 47 1010.5
20260508060529 84 190 0.0 0.0 0.00 0.00 0.00 47 1010.3
20260508060106 84 0 0.0 2.0 0.00 0.00 0.00 47 1010.1
20260508060030 84 190 0.0 0.0 0.00 0.00 0.00 47 1010.4
20260508055530 84 190 0.0 2.0 0.00 0.00 0.00 47 1010.4
20260508055029 84 190 0.0 3.0 0.00 0.00 0.00 46 1010.4
20260508054605 85 0 0.0 3.0 0.00 0.00 0.00 46 1010.1
20260508054533 85 190 1.0 3.0 0.00 0.00 0.00 46 1010.5
20260508054029 85 190 0.0 3.0 0.00 0.00 0.00 46 1010.5
20260508053529 85 190 0.0 3.0 0.00 0.00 0.00 45 1010.5
20260508053105 85 0 1.0 6.0 0.00 0.00 0.00 44 1010.2
20260508053031 85 190 0.0 6.0 0.00 0.00 0.00 45 1010.5
20260508052532 85 190 2.0 6.0 0.00 0.00 0.00 44 1010.5
20260508052029 86 190 0.0 3.0 0.00 0.00 0.00 44 1010.6
20260508051556 86 0 1.0 3.0 0.00 0.00 0.00 43 1010.4
20260508051531 86 190 0.0 2.0 0.00 0.00 0.00 44 1010.6
20260508051030 86 190 0.0 3.0 0.00 0.00 0.00 44 1010.5
20260508050527 86 190 0.0 3.0 0.00 0.00 0.00 44 1010.4
20260508050100 86 190 0.0 2.0 0.00 0.00 0.00 43 1010.0
20260508050029 86 190 0.0 1.0 0.00 0.00 0.00 43 1010.3
20260508045527 87 190 0.0 3.0 0.00 0.00 0.00 43 1010.2
20260508045027 87 190 0.0 4.0 0.00 0.00 0.00 43 1010.1
20260508044558 87 190 0.0 2.0 0.00 0.00 0.00 42 1009.7
20260508044527 87 190 0.0 2.0 0.00 0.00 0.00 43 1010.1
20260508044028 87 190 0.0 2.0 0.00 0.00 0.00 43 1010.0
20260508043527 87 190 0.0 2.0 0.00 0.00 0.00 43 1009.8
20260508043144 87 0 0.0 4.0 0.00 0.00 0.00 42 1009.4
20260508043027 87 190 0.0 4.0 0.00 0.00 0.00 43 1009.7
20260508042527 87 190 1.0 4.0 0.00 0.00 0.00 42 1009.7
20260508042027 87 190 0.0 4.0 0.00 0.00 0.00 42 1009.6
20260508041604 87 190 0.0 3.0 0.00 0.00 0.00 41 1009.2
20260508041526 87 190 1.0 3.0 0.00 0.00 0.00 42 1009.4
20260508041027 87 190 0.0 2.0 0.00 0.00 0.00 42 1009.2
20260508040526 88 190 0.0 3.0 0.00 0.00 0.00 42 1009.1
20260508040110 88 190 0.0 3.0 0.00 0.00 0.00 41 1008.8
20260508040026 88 190 0.0 3.0 0.00 0.00 0.00 42 1009.0
20260508035526 88 190 0.0 1.0 0.00 0.00 0.00 42 1008.9
20260508035025 88 190 0.0 1.0 0.00 0.00 0.00 42 1008.7
20260508034559 88 0 0.0 6.0 0.00 0.00 0.00 41 1008.5
20260508034534 88 190 0.0 6.0 0.00 0.00 0.00 41 1008.6
20260508034024 88 190 3.0 7.0 0.00 0.00 0.00 41 1008.6
20260508033527 89 190 1.0 7.0 0.00 0.00 0.00 41 1008.5
20260508033102 89 190 2.0 7.0 0.00 0.00 0.00 40 1008.3
20260508033026 89 190 2.0 7.0 0.00 0.00 0.00 40 1008.5
20260508032524 89 190 1.0 7.0 0.00 0.00 0.00 40 1008.3
20260508032025 90 190 1.0 8.0 0.00 0.00 0.00 39 1008.2
20260508031608 90 190 2.0 8.0 0.00 0.00 0.00 39 1008.1
20260508031524 90 190 2.0 8.0 0.00 0.00 0.00 39 1008.2
20260508031024 90 190 0.0 7.0 0.00 0.00 0.00 39 1008.0
20260508030524 90 190 1.0 7.0 0.00 0.00 0.00 39 1007.7
20260508030124 90 190 2.0 8.0 0.00 0.00 0.00 39 1007.3
20260508030024 90 190 2.0 8.0 0.00 0.00 0.00 39 1007.3
20260508025523 91 190 4.0 8.0 0.00 0.00 0.00 39 1007.0
20260508025022 91 190 4.0 7.0 0.00 0.00 0.00 38 1007.0
20260508024605 92 190 4.0 8.0 0.00 0.00 0.00 37 1006.8
20260508024529 92 190 4.0 8.0 0.00 0.00 0.00 37 1006.9
20260508024023 92 190 2.0 7.0 0.00 0.00 0.00 36 1006.8
20260508023523 92 190 3.0 6.0 0.00 0.00 0.00 35 1006.8
20260508023058 93 190 1.0 4.0 0.00 0.00 0.00 34 1006.5
20260508023026 93 190 1.0 4.0 0.00 0.00 0.00 35 1006.7
20260508022521 93 190 0.0 3.0 0.00 0.00 0.00 35 1006.6
20260508022022 93 190 1.0 3.0 0.00 0.00 0.00 34 1006.4
20260508021558 93 0 0.0 3.0 0.00 0.00 0.00 34 1006.1
20260508021521 93 190 0.0 3.0 0.00 0.00 0.00 34 1006.2
20260508021021 94 190 0.0 2.0 0.00 0.00 0.00 33 1006.2
20260508020522 94 190 0.0 2.0 0.00 0.00 0.00 33 1006.1
20260508020059 94 0 0.0 8.0 0.00 0.00 0.00 33 1005.8
20260508020021 94 190 0.0 7.0 0.00 0.00 0.00 33 1005.9
20260508015521 94 190 2.0 8.0 0.00 0.00 0.00 33 1005.7
20260508015020 95 190 3.0 8.0 0.00 0.00 0.00 33 1005.5
20260508014558 95 190 1.0 9.0 0.00 0.00 0.00 31 1005.2
20260508014520 95 190 2.0 8.0 0.00 0.00 0.00 32 1005.3
20260508014020 95 190 1.0 9.0 0.00 0.00 0.00 31 1005.1
20260508013519 96 190 2.0 9.0 0.00 0.00 0.00 29 1005.0
20260508013058 96 190 4.0 9.0 0.00 0.00 0.00 27 1004.8
20260508013021 96 190 3.0 9.0 0.00 0.00 0.00 27 1004.9
20260508012519 97 190 3.0 7.0 0.00 0.00 0.00 25 1004.7
20260508012019 97 190 1.0 5.0 0.00 0.00 0.00 24 1004.6
20260508011611 97 0 0.0 4.0 0.00 0.00 0.00 24 1004.4
20260508011523 97 190 0.0 3.0 0.00 0.00 0.00 24 1004.4
20260508011019 98 190 1.0 4.0 0.00 0.00 0.00 24 1004.4
20260508010519 98 190 1.0 5.0 0.00 0.00 0.00 24 1004.3
20260508010108 98 190 1.0 7.0 0.00 0.00 0.00 23 1004.1
20260508010019 98 190 0.0 7.0 0.00 0.00 0.00 24 1004.2
20260508005520 99 190 1.0 4.0 0.00 0.00 0.00 23 1004.0
20260508005018 99 190 0.0 5.0 0.00 0.00 0.00 23 1003.9
20260508004604 100 190 1.0 4.0 0.00 0.00 0.00 22 1003.9
20260508004524 100 190 0.0 4.0 0.00 0.00 0.00 23 1004.0
20260508004017 100 190 0.0 5.0 0.00 0.00 0.00 22 1003.9
20260508003517 100 190 2.0 6.0 0.00 0.00 0.00 22 1003.9
20260508003111 101 0 2.0 6.0 0.00 0.00 0.00 21 1003.8
20260508003017 101 190 3.0 6.0 0.00 0.00 0.00 22 1003.8
20260508002518 101 190 2.0 7.0 0.00 0.00 0.00 22 1003.7
20260508002018 101 190 1.0 7.0 0.00 0.00 0.00 22 1003.7
20260508001556 101 190 3.0 6.0 0.00 0.00 0.00 21 1003.7
20260508001517 101 190 2.0 6.0 0.00 0.00 0.00 22 1003.7
20260508001018 102 190 2.0 6.0 0.00 0.00 0.00 21 1003.7
20260508000519 101 190 1.0 7.0 0.00 0.00 0.00 22 1003.6
20260508000057 102 190 3.0 7.0 0.00 0.00 0.00 21 1003.6
20260508000016 101 190 3.0 7.0 0.00 0.00 0.00 22 1003.6
20260507235516 102 190 3.0 7.0 0.00 0.00 0.00 22 1003.5
20260507235015 101 190 2.0 7.0 0.00 0.00 0.00 22 1003.5
20260507234558 101 190 2.0 7.0 0.00 0.00 0.00 22 1003.5
20260507234520 101 190 1.0 7.0 0.00 0.00 0.00 23 1003.5